Temp
-12 -13 -13 -14 -15 -16 -15 -15 -16 -16 -16 -16 -16 -17 -18 -21 -21 -23 -24 -24 -25 -23 -22 -22 -20 -20 -20 -20 -18 -18 -18 -18 -18 -17 -16 -15 -15 -14 -14 -14 -14 -12 -12 -12 -13 -13 -12
-12 -13 -13 -14 -15 -15 -15 -16 -16 -15 -16 -16 -17 -18 -21 -23 -25 -25 -26 -26 -26 -26 -24 -22 -21 -21 -21 -19 -19 -18 -19 -18 -18 -17 -16 -16 -15 -15 -14 -14 -14 -13 -13 -13 -14 -13 -12
-13 -14 -14 -14 -15 -15 -16 -16 -15 -16 -16 -17 -17 -21 -23 -25 -26 -26 -27 -27 -26 -27 -25 -23 -22 -22 -21 -19 -19 -19 -19 -18 -18 -18 -17 -16 -15 -15 -15 -14 -14 -13 -13 -13 -13 -13 -13
-14 -14 -14 -15 -15 -16 -16 -16 -15 -16 -16 -17 -19 -23 -25 -26 -26 -26 -27 -27 -27 -27 -26 -24 -23 -22 -21 -20 -19 -19 -19 -18 -18 -17 -17 -17 -16 -15 -15 -15 -14 -13 -13 -13 -13 -13 -13
-14 -14 -15 -15 -15 -16 -16 -16 -16 -16 -16 -17 -21 -25 -26 -27 -27 -27 -27 -27 -28 -27 -26 -24 -23 -23 -21 -20 -20 -19 -19 -19 -18 -18 -18 -17 -17 -16 -15 -15 -14 -14 -13 -13 -14 -14 -13
-14 -14 -15 -15 -16 -16 -16 -16 -16 -16 -16 -18 -23 -26 -27 -27 -27 -27 -27 -27 -27 -27 -26 -24 -24 -23 -21 -20 -19 -19 -19 -19 -18 -17 -17 -18 -17 -16 -15 -15 -14 -13 -13 -14 -14 -14 -13
-14 -15 -15 -16 -16 -16 -16 -16 -16 -16 -17 -20 -24 -26 -27 -28 -27 -27 -27 -27 -27 -27 -25 -24 -23 -22 -21 -21 -20 -20 -19 -19 -18 -18 -17 -17 -17 -15 -15 -15 -15 -15 -14 -14 -14 -13 -13
-15 -15 -15 -15 -16 -16 -16 -16 -16 -16 -18 -21 -26 -26 -27 -27 -27 -27 -27 -27 -27 -27 -25 -24 -23 -23 -22 -21 -20 -19 -19 -19 -18 -18 -17 -17 -17 -17 -16 -16 -15 -15 -14 -14 -14 -14 -13
-15 -15 -15 -15 -16 -16 -16 -16 -16 -16 -18 -22 -26 -26 -27 -27 -27 -27 -27 -27 -27 -27 -25 -24 -23 -22 -22 -21 -20 -20 -19 -19 -19 -18 -18 -17 -17 -17 -17 -16 -16 -15 -14 -14 -14 -14 -13
-15 -15 -16 -16 -16 -16 -17 -17 -16 -17 -19 -22 -26 -26 -26 -26 -27 -27 -27 -27 -27 -26 -25 -24 -23 -22 -22 -20 -20 -20 -20 -19 -19 -19 -19 -19 -18 -17 -17 -17 -16 -15 -15 -15 -14 -14 -13
-15 -15 -16 -16 -17 -16 -17 -17 -17 -19 -22 -22 -22 -26 -26 -26 -26 -27 -27 -27 -26 -25 -25 -23 -23 -22 -21 -20 -20 -19 -19 -19 -19 -18 -18 -17 -17 -17 -17 -17 -16 -16 -15 -15 -14 -14 -13
-15 -15 -16 -16 -16 -16 -17 -17 -19 -20 -21 -22 -22 -23 -25 -26 -26 -26 -27 -26 -25 -24 -24 -23 -22 -21 -20 -20 -20 -20 -19 -20 -19 -19 -18 -18 -18 -18 -17 -17 -16 -16 -16 -15 -15 -14 -13
-16 -15 -16 -16 -17 -16 -17 -17 -19 -21 -21 -21 -22 -23 -24 -25 -26 -26 -26 -25 -24 -24 -23 -22 -21 -21 -20 -20 -20 -20 -19 -19 -19 -18 -18 -18 -18 -17 -17 -16 -16 -16 -16 -15 -15 -14 -13
-16 -16 -16 -17 -17 -17 -17 -18 -19 -20 -21 -20 -21 -22 -23 -24 -25 -26 -25 -24 -23 -23 -22 -21 -21 -21 -20 -20 -20 -19 -19 -19 -19 -19 -19 -19 -18 -18 -17 -17 -17 -16 -16 -15 -15 -14 -14
-16 -16 -16 -17 -17 -17 -17 -18 -19 -20 -20 -20 -21 -21 -22 -23 -24 -24 -23 -22 -22 -22 -21 -21 -21 -20 -20 -20 -19 -19 -19 -19 -20 -20 -19 -19 -18 -18 -17 -17 -16 -16 -15 -16 -15 -15 -15
-16 -16 -16 -17 -17 -17 -17 -18 -18 -19 -20 -20 -20 -21 -20 -21 -21 -22 -22 -22 -22 -22 -21 -21 -20 -20 -20 -20 -20 -19 -20 -20 -20 -20 -19 -19 -18 -18 -18 -17 -17 -16 -16 -16 -16 -15 -15
-16 -16 -16 -18 -17 -18 -17 -18 -18 -19 -20 -20 -20 -20 -20 -20 -21 -20 -21 -21 -21 -21 -21 -21 -20 -20 -20 -20 -20 -20 -20 -20 -20 -20 -19 -19 -18 -18 -18 -17 -17 -17 -17 -16 -16 -16 -16
-17 -16 -16 -18 -17 -17 -18 -18 -19 -19 -20 -20 -20 -20 -20 -20 -20 -20 -20 -21 -21 -20 -20 -20 -20 -20 -20 -20 -20 -20 -20 -20 -19 -20 -19 -18 -18 -18 -18 -17 -17 -17 -17 -17 -16 -16 -16
-17 -16 -16 -18 -17 -18 -17 -18 -18 -19 -19 -20 -20 -20 -20 -19 -20 -20 -19 -20 -20 -20 -20 -20 -20 -20 -20 -20 -19 -20 -20 -20 -19 -19 -19 -18 -18 -18 -18 -18 -17 -17 -17 -17 -16 -16 -16
-16 -16 -17 -18 -18 -18 -18 -18 -18 -18 -19 -19 -20 -20 -20 -20 -19 -20 -19 -19 -19 -19 -20 -20 -19 -19 -19 -19 -19 -19 -19 -19 -20 -19 -18 -18 -18 -18 -17 -17 -17 -17 -16 -16 -16 -16 -16
-16 -16 -17 -18 -18 -18 -18 -18 -18 -18 -18 -19 -19 -19 -20 -20 -19 -19 -19 -19 -19 -19 -19 -19 -19 -19 -19 -19 -20 -20 -20 -19 -19 -18 -18 -18 -18 -18 -17 -17 -17 -17 -17 -16 -16 -16 -16
-16 -17 -17 -18 -18 -18 -18 -18 -18 -18 -18 -18 -19 -19 -20 -20 -19 -19 -19 -19 -19 -19 -19 -19 -19 -19 -19 -19 -19 -19 -19 -18 -18 -18 -18 -18 -17 -17 -17 -17 -17 -17 -17 -16 -16 -16 -16
-16 -17 -17 -18 -18 -18 -18 -18 -18 -19 -19 -18 -18 -19 -19 -19 -20 -19 -19 -19 -19 -19 -19 -19 -19 -19 -19 -19 -19 -19 -19 -18 -18 -18 -18 -18 -17 -17 -17 -17 -17 -17 -17 -17 -17 -16 -16
-16 -17 -17 -18 -18 -18 -18 -18 -18 -18 -19 -19 -19 -18 -19 -20 -20 -20 -19 -19 -19 -19 -19 -19 -19 -19 -19 -19 -19 -19 -19 -18 -18 -18 -18 -18 -17 -17 -17 -17 -17 -17 -17 -17 -17 -17 -17
-16 -17 -17 -18 -18 -18 -18 -18 -18 -18 -19 -19 -19 -19 -19 -20 -20 -20 -20 -19 -19 -19 -19 -19 -18 -19 -19 -19 -19 -19 -19 -19 -18 -18 -18 -18 -18 -17 -17 -17 -17 -17 -17 -17 -17 -17 -16
-16 -16 -17 -18 -18 -18 -18 -18 -18 -18 -18 -19 -20 -20 -20 -19 -20 -20 -20 -19 -19 -19 -19 -19 -19 -19 -19 -19 -19 -19 -19 -19 -18 -18 -18 -18 -18 -17 -17 -17 -17 -17 -17 -17 -17 -17 -16
-16 -16 -17 -18 -18 -18 -18 -18 -18 -17 -18 -18 -19 -20 -20 -20 -20 -20 -20 -20 -19 -19 -19 -19 -19 -19 -19 -19 -19 -19 -19 -19 -19 -19 -18 -18 -18 -18 -17 -17 -17 -17 -17 -17 -17 -16 -16
-17 -18 -18 -18 -18 -18 -18 -18 -18 -17 -17 -17 -17 -18 -19 -20 -21 -22 -21 -21 -20 -20 -19 -19 -19 -19 -19 -19 -19 -19 -19 -19 -19 -19 -18 -18 -18 -18 -17 -18 -17 -17 -17 -17 -17 -17 -16
-18 -18 -18 -18 -18 -17 -17 -18 -17 -17 -17 -16 -16 -19 -21 -22 -23 -22 -21 -21 -20 -20 -20 -19 -19 -19 -19 -19 -19 -19 -19 -19 -19 -19 -18 -18 -18 -18 -18 -18 -17 -17 -17 -17 -17 -17 -17
Height
5736 5728 5718 5708 5699 5690 5681 5672 5663 5652 5640 5628 5615 5600 5584 5571 5557 5545 5534 5529 5529 5532 5544 5559 5574 5589 5598 5610 5624 5629 5635 5643 5653 5664 5675 5686 5695 5704 5712 5718 5724 5731 5737 5742 5748 5754 5760
5730 5721 5712 5702 5693 5684 5674 5663 5653 5639 5626 5611 5595 5577 5562 5550 5539 5528 5519 5517 5516 5518 5524 5539 5556 5572 5585 5603 5611 5620 5629 5636 5647 5657 5668 5678 5688 5696 5702 5710 5717 5724 5729 5736 5742 5748 5753
5726 5716 5706 5695 5686 5675 5666 5654 5642 5627 5611 5594 5574 5557 5545 5536 5529 5519 5513 5511 5509 5509 5513 5523 5542 5558 5574 5595 5605 5614 5623 5631 5639 5650 5661 5671 5680 5687 5697 5703 5710 5716 5723 5729 5737 5743 5747
5721 5711 5699 5690 5680 5669 5657 5645 5631 5614 5597 5578 5557 5542 5533 5527 5523 5516 5511 5507 5504 5504 5505 5515 5531 5549 5570 5587 5599 5608 5618 5625 5633 5643 5653 5662 5670 5678 5688 5696 5704 5710 5717 5724 5732 5737 5742
5714 5704 5693 5683 5673 5663 5650 5636 5621 5604 5584 5562 5540 5530 5524 5520 5516 5512 5508 5504 5501 5499 5499 5509 5527 5546 5564 5581 5595 5604 5612 5619 5627 5637 5646 5655 5662 5672 5680 5690 5698 5704 5711 5719 5726 5730 5735
5709 5699 5687 5678 5667 5658 5644 5629 5613 5595 5572 5547 5528 5520 5515 5513 5511 5508 5505 5503 5500 5497 5497 5507 5524 5543 5563 5578 5591 5597 5608 5616 5624 5634 5641 5649 5656 5666 5676 5685 5694 5701 5706 5712 5718 5724 5729
5703 5692 5683 5672 5662 5652 5638 5622 5605 5585 5561 5535 5518 5511 5508 5506 5505 5504 5502 5501 5499 5498 5496 5505 5524 5544 5558 5572 5584 5595 5605 5613 5622 5631 5641 5647 5654 5664 5674 5681 5687 5693 5699 5706 5711 5717 5723
5698 5688 5679 5668 5658 5646 5633 5618 5600 5578 5552 5526 5513 5507 5503 5501 5500 5499 5498 5497 5497 5495 5496 5507 5526 5542 5559 5570 5583 5592 5601 5612 5620 5628 5637 5643 5650 5659 5667 5673 5680 5687 5694 5701 5706 5711 5716
5694 5683 5674 5664 5653 5643 5629 5614 5595 5572 5546 5522 5510 5504 5501 5499 5497 5496 5495 5495 5494 5493 5498 5514 5530 5546 5560 5573 5583 5591 5601 5610 5618 5624 5630 5636 5646 5655 5660 5669 5676 5683 5688 5694 5701 5705 5709
5690 5678 5669 5661 5651 5639 5626 5610 5591 5569 5543 5522 5509 5502 5498 5497 5496 5494 5493 5492 5493 5493 5505 5523 5538 5552 5564 5573 5584 5591 5601 5609 5615 5622 5629 5634 5643 5652 5658 5665 5671 5677 5683 5689 5694 5699 5704
5687 5676 5667 5659 5649 5637 5625 5608 5591 5570 5551 5533 5516 5505 5500 5496 5495 5493 5493 5493 5495 5501 5514 5531 5544 5555 5568 5578 5587 5594 5602 5610 5615 5623 5632 5639 5644 5650 5657 5662 5666 5673 5678 5683 5689 5694 5698
5684 5674 5665 5656 5647 5637 5625 5609 5592 5576 5561 5544 5529 5513 5502 5497 5494 5492 5492 5494 5502 5515 5525 5538 5550 5560 5571 5579 5585 5595 5601 5609 5614 5621 5630 5637 5642 5647 5652 5657 5663 5670 5675 5679 5684 5689 5692
5680 5671 5662 5653 5645 5638 5625 5611 5598 5583 5570 5557 5543 5527 5513 5505 5499 5495 5498 5505 5517 5526 5537 5547 5554 5562 5574 5583 5590 5596 5604 5609 5614 5620 5626 5634 5640 5645 5650 5655 5660 5666 5671 5676 5681 5684 5687
5676 5667 5659 5651 5645 5638 5626 5615 5602 5591 5580 5567 5555 5543 5531 5525 5521 5516 5516 5524 5531 5538 5545 5554 5562 5570 5578 5585 5593 5599 5606 5611 5616 5622 5628 5634 5640 5644 5649 5654 5659 5663 5668 5672 5675 5679 5683
5672 5664 5656 5649 5643 5637 5628 5618 5606 5597 5588 5579 5568 5557 5548 5541 5536 5534 5537 5542 5545 5547 5555 5562 5569 5576 5582 5588 5596 5600 5606 5611 5616 5622 5630 5634 5639 5643 5646 5651 5657 5661 5664 5669 5672 5675 5677
5669 5661 5653 5646 5641 5635 5629 5621 5610 5601 5594 5586 5578 5569 5563 5558 5555 5554 5556 5554 5555 5559 5562 5569 5575 5580 5587 5592 5598 5603 5608 5612 5615 5621 5627 5633 5637 5641 5644 5649 5654 5657 5661 5665 5668 5672 5675
5664 5656 5648 5642 5638 5633 5627 5622 5613 5606 5599 5593 5586 5580 5576 5572 5572 5573 5571 5571 5571 5573 5577 5581 5586 5590 5593 5598 5602 5607 5611 5614 5618 5622 5627 5632 5637 5641 5644 5646 5650 5655 5658 5661 5665 5669 5672
5659 5651 5643 5638 5634 5632 5626 5621 5615 5610 5604 5599 5594 5590 5585 5582 5582 5581 5581 5580 5581 5583 5586 5588 5591 5595 5599 5602 5605 5608 5612 5615 5619 5624 5628 5632 5635 5639 5642 5645 5649 5654 5657 5660 5662 5667 5669
5653 5646 5637 5634 5631 5628 5625 5621 5617 5612 5607 5604 5600 5596 5594 5588 5586 5585 5585 5587 5588 5590 5592 5594 5596 5599 5602 5604 5607 5609 5613 5617 5621 5624 5628 5631 5634 5638 5641 5646 5648 5651 5654 5657 5660 5663 5665
5646 5640 5633 5631 5628 5625 5622 5619 5616 5612 5609 5606 5604 5601 5600 5596 5592 5589 5588 5590 5592 5595 5597 5598 5600 5602 5604 5606 5608 5611 5614 5618 5621 5624 5628 5631 5634 5638 5642 5644 5648 5651 5654 5655 5658 5659 5660
5640 5634 5628 5625 5623 5622 5619 5616 5614 5612 5609 5607 5604 5603 5602 5601 5599 5596 5594 5595 5596 5598 5599 5600 5602 5603 5606 5607 5609 5612 5615 5618 5621 5624 5627 5631 5634 5637 5640 5643 5646 5648 5650 5652 5654 5655 5657
5634 5628 5623 5620 5617 5616 5615 5612 5610 5609 5607 5606 5604 5603 5602 5601 5602 5601 5600 5601 5600 5601 5602 5603 5604 5605 5606 5608 5609 5612 5614 5617 5620 5623 5626 5629 5633 5636 5638 5641 5643 5645 5647 5649 5650 5651 5651
5626 5621 5618 5614 5611 5609 5608 5607 5605 5605 5603 5603 5602 5600 5601 5601 5601 5602 5603 5602 5603 5603 5603 5603 5604 5605 5606 5608 5610 5612 5615 5617 5620 5623 5625 5628 5631 5634 5637 5639 5641 5644 5644 5646 5646 5647 5649
5619 5613 5610 5607 5604 5602 5602 5601 5600 5599 5598 5598 5598 5597 5596 5598 5599 5600 5602 5601 5602 5603 5603 5603 5604 5604 5606 5607 5609 5612 5614 5617 5619 5622 5624 5627 5630 5633 5635 5637 5640 5640 5641 5642 5642 5644 5646
5612 5606 5602 5598 5596 5595 5594 5595 5594 5592 5591 5591 5591 5592 5592 5592 5595 5597 5599 5600 5600 5601 5602 5602 5602 5604 5605 5606 5609 5611 5614 5616 5618 5621 5624 5626 5629 5631 5633 5634 5637 5637 5638 5639 5639 5642 5643
5603 5598 5592 5590 5587 5585 5586 5587 5587 5586 5584 5583 5583 5583 5585 5586 5588 5590 5594 5597 5598 5598 5600 5601 5601 5602 5603 5605 5607 5609 5612 5614 5617 5619 5622 5624 5626 5628 5629 5631 5632 5634 5635 5636 5637 5638 5639
5595 5589 5586 5583 5579 5579 5579 5579 5579 5577 5575 5573 5572 5571 5571 5574 5577 5579 5584 5590 5593 5595 5596 5598 5599 5600 5602 5603 5605 5607 5609 5611 5614 5616 5618 5620 5622 5624 5625 5627 5629 5630 5631 5633 5635 5639 5637
5588 5582 5579 5576 5573 5572 5572 5572 5571 5569 5565 5561 5556 5551 5548 5551 5556 5567 5575 5581 5587 5590 5592 5594 5597 5598 5599 5601 5603 5604 5606 5608 5610 5612 5614 5617 5618 5620 5622 5623 5626 5627 5628 5630 5632 5633 5634
5582 5577 5573 5569 5567 5566 5566 5565 5564 5560 5556 5548 5539 5528 5525 5533 5549 5563 5570 5576 5582 5586 5589 5591 5593 5595 5596 5597 5599 5601 5602 5604 5606 5608 5610 5613 5614 5617 5619 5620 5622 5623 5625 5626 5628 5630 5631
Wind_Speed
54 55 58 52 49 47 49 51 57 64 67 69 73 78 76 71 58 55 53 46 35 42 56 64 64 60 55 47 47 47 47 52 48 52 53 52 49 47 47 45 43 43 44 41 38 40 43
56 56 57 53 51 50 52 55 62 67 71 74 80 82 70 54 48 46 35 26 23 28 47 62 63 59 55 54 46 48 46 47 48 45 50 52 53 49 48 46 45 44 42 39 34 34 38
56 55 57 54 52 52 56 59 65 70 75 80 83 76 54 45 38 32 19 19 21 24 35 59 62 58 55 51 44 42 42 40 44 42 45 48 53 50 48 46 48 48 45 42 37 35 40
57 59 56 53 52 54 57 62 69 72 79 83 83 58 41 36 29 24 18 18 17 21 27 53 60 56 54 49 40 38 40 35 35 47 43 47 47 50 49 48 47 49 47 45 40 37 40
58 58 55 53 54 56 58 65 70 75 82 82 78 45 34 23 23 19 18 15 17 13 22 47 55 52 51 47 42 36 37 37 33 43 43 43 45 48 49 49 47 48 48 46 43 41 41
59 57 53 55 54 58 59 65 71 78 83 81 68 37 27 18 19 19 17 15 18 16 20 43 52 52 49 45 36 36 38 34 33 36 40 43 42 46 49 50 49 48 47 46 43 43 42
60 52 53 54 55 58 59 66 72 79 85 80 53 32 21 18 19 19 21 18 18 15 18 45 51 49 49 49 45 33 36 31 36 35 26 39 38 45 45 45 45 45 45 45 44 43 44
58 59 57 56 55 57 60 66 73 81 85 74 46 25 16 19 18 18 15 13 14 14 23 47 50 48 44 45 41 31 33 32 33 40 35 30 41 33 43 45 45 46 44 42 41 41 42
58 62 57 53 56 58 61 67 74 84 81 63 38 27 18 14 13 15 17 13 13 8 33 47 47 44 41 40 43 22 35 30 35 38 34 34 31 36 27 36 41 41 42 41 40 39 41
58 61 55 52 57 59 59 66 75 82 67 55 36 27 17 17 12 13 11 8 4 6 46 47 43 39 40 35 41 30 27 24 36 39 37 30 26 31 24 21 33 40 41 37 38 39 40
60 60 62 58 58 56 58 64 72 69 56 67 55 28 14 19 12 10 11 4 5 36 48 46 43 39 38 36 33 38 29 22 33 32 35 35 31 32 20 25 29 31 33 31 33 33 35
59 57 60 60 59 54 56 60 64 54 51 64 63 51 27 15 10 10 6 9 31 42 42 46 41 33 37 39 27 30 32 23 33 34 32 31 31 31 34 27 34 30 27 27 27 27 30
58 58 57 55 51 53 51 56 54 41 48 60 66 57 54 46 31 28 30 39 42 42 46 47 30 30 35 33 31 27 27 23 34 35 36 32 29 31 31 29 28 25 26 26 24 25 26
54 52 51 46 50 49 47 50 49 37 37 47 51 57 45 38 28 32 40 46 43 44 40 36 29 31 31 30 31 29 26 18 24 31 26 26 26 25 25 27 25 25 26 25 24 22 21
54 49 49 42 45 45 43 42 45 32 37 48 46 48 51 34 23 33 44 45 32 30 43 29 30 28 26 32 29 27 24 17 27 29 22 20 22 23 23 23 22 22 22 21 19 18 18
57 48 47 41 41 42 38 37 39 30 34 38 43 42 39 41 28 43 45 24 28 34 27 31 39 31 28 26 26 25 24 21 23 29 31 26 25 21 20 20 20 21 20 19 18 19 18
58 49 47 37 39 35 31 31 33 27 28 34 33 34 36 32 30 21 26 18 27 27 24 26 24 25 20 17 18 19 18 17 17 19 19 18 19 20 20 19 18 21 22 22 20 18 16
57 49 45 33 34 34 25 23 25 22 21 25 35 33 32 29 20 17 8 9 17 18 19 21 19 18 14 15 15 16 17 20 16 16 17 17 18 18 19 21 21 21 18 17 16 14 14
55 48 44 30 29 33 26 18 18 20 17 16 21 26 32 30 22 12 11 14 12 21 18 19 17 16 16 15 15 18 19 19 19 18 16 17 17 18 17 15 15 14 15 15 14 13 11
52 46 40 25 27 31 26 15 13 13 17 14 13 19 22 22 26 16 13 13 13 14 15 15 17 16 14 14 17 17 18 17 17 17 17 18 17 16 14 13 13 14 14 13 12 12 14
49 43 36 29 26 24 27 19 10 8 11 13 11 9 13 15 17 18 12 9 15 14 14 13 11 12 12 12 13 14 15 17 18 17 17 15 14 13 13 13 13 13 12 11 12 15 13
47 41 35 31 26 24 25 23 11 10 6 9 14 10 9 9 8 10 9 7 9 10 9 10 10 9 12 13 13 17 14 17 17 16 15 15 13 13 12 12 12 12 12 13 14 14 14
46 39 34 29 26 25 22 25 17 12 10 9 9 10 6 8 8 2 3 8 7 7 6 8 9 11 11 12 13 14 11 14 16 15 16 15 14 13 11 12 12 13 13 14 14 13 12
44 38 31 29 30 25 23 25 23 17 13 13 14 12 12 11 12 9 8 5 7 6 8 8 7 8 10 10 17 14 12 13 14 14 14 13 12 12 12 12 12 12 13 13 14 13 12
42 38 31 32 32 25 23 23 23 25 18 19 19 19 17 18 17 15 15 15 9 8 8 9 7 8 8 9 17 14 14 15 14 14 14 14 13 13 13 13 13 12 13 13 14 13 11
40 37 34 32 30 23 23 23 23 26 25 25 27 26 25 25 24 23 22 22 18 14 12 11 11 10 9 12 12 17 18 16 17 16 15 15 15 15 15 15 14 13 13 16 14 12 10
39 39 33 30 26 23 21 23 25 27 27 33 34 34 33 30 33 33 30 29 26 20 18 14 12 13 13 12 13 14 15 18 21 20 19 18 18 18 17 15 15 14 16 15 13 11 10
38 37 32 28 23 21 23 23 24 27 32 37 44 50 46 39 51 41 35 31 28 23 21 18 14 14 14 16 17 18 18 19 18 19 20 20 20 20 17 16 17 16 17 15 12 11 8
36 32 28 25 23 22 23 20 22 27 33 41 51 44 28 44 46 38 35 30 26 23 21 19 17 17 16 15 16 19 22 21 22 21 21 21 21 18 18 18 16 16 16 13 11 9 8
Wind_Direction
326 328 331 331 329 323 324 325 326 326 323 323 321 317 312 316 309 301 294 289 275 250 235 224 221 223 221 219 221 222 225 221 216 221 221 222 223 222 225 224 226 227 228 232 233 233 231
327 330 335 333 330 326 324 325 327 327 327 325 323 318 322 316 313 311 298 285 261 249 224 219 214 217 215 214 215 217 222 222 211 216 219 217 224 223 224 224 225 226 228 231 229 225 223
335 333 334 333 330 327 327 330 331 331 329 328 323 324 323 316 317 323 315 295 275 248 232 208 209 210 209 207 211 217 216 220 214 209 215 216 218 221 223 223 224 226 229 231 230 222 219
337 335 335 334 330 330 330 330 333 333 332 330 324 330 315 311 317 333 330 326 312 257 235 207 204 202 206 200 200 205 209 219 212 208 210 212 214 217 220 223 224 228 229 231 231 227 223
334 335 335 335 332 333 334 334 336 336 334 331 327 328 318 305 314 319 323 328 331 284 227 204 199 195 196 195 202 206 202 215 208 201 207 210 213 215 218 221 223 226 229 231 232 232 229
333 335 337 336 333 335 337 336 339 338 337 331 331 325 319 299 307 307 310 312 341 323 215 198 191 189 188 188 189 194 201 208 208 196 204 207 212 215 218 221 224 227 230 233 235 235 235
338 335 337 334 335 337 339 340 341 341 343 333 336 327 316 294 291 300 297 305 312 324 206 185 184 186 184 186 188 189 202 209 202 188 194 216 214 218 220 221 225 227 230 232 235 236 237
337 339 341 337 336 337 342 343 345 346 349 337 340 344 333 310 304 308 303 298 309 316 193 177 177 180 182 183 182 199 189 207 195 186 188 204 213 210 218 220 222 226 230 235 238 240 241
339 339 336 339 336 340 345 346 348 353 353 342 340 333 334 331 323 319 306 303 301 309 174 167 172 174 179 178 180 193 188 202 201 188 202 205 192 200 210 220 224 228 232 235 240 243 245
344 346 341 341 339 340 348 352 353 358 358 355 350 349 336 336 332 327 326 294 289 161 158 160 164 167 171 171 186 186 180 199 197 190 196 209 203 199 204 200 215 225 231 235 239 243 246
346 345 345 342 339 343 352 358 359 8 32 31 27 2 358 349 328 346 346 330 134 148 152 153 155 161 170 171 174 191 188 199 189 185 194 196 197 199 200 204 213 220 225 227 233 238 242
347 343 340 341 339 345 355 2 5 15 32 26 25 32 21 5 338 291 317 137 136 142 146 148 147 160 173 175 170 172 181 194 188 185 189 199 198 197 196 208 209 214 225 225 226 233 239
340 344 342 346 343 344 359 6 10 19 23 22 24 30 47 43 59 84 104 124 135 140 143 152 134 146 161 170 176 177 184 189 186 184 187 194 194 200 204 212 216 217 222 227 230 234 240
344 342 342 348 348 345 -0 9 13 18 22 14 13 30 36 50 61 92 119 129 132 137 144 154 150 156 158 172 176 180 185 193 195 191 194 195 199 199 198 207 210 212 218 222 228 231 239
341 340 340 337 340 345 358 8 12 23 27 26 18 28 36 51 71 114 124 118 105 143 141 149 156 171 164 168 171 176 181 192 194 186 184 186 194 196 198 204 209 212 219 224 225 224 228
340 338 336 333 334 337 355 8 12 17 18 20 27 28 34 34 85 123 129 109 99 154 135 134 157 165 162 167 173 177 184 184 179 192 189 195 196 199 204 205 206 210 215 218 221 217 218
335 335 332 331 328 330 356 6 14 17 16 16 22 29 36 42 80 107 137 127 131 139 163 148 154 164 167 169 172 181 185 181 191 175 179 191 199 203 208 209 209 210 207 208 212 217 219
333 333 328 328 318 327 345 7 9 9 13 22 31 33 36 47 60 76 132 176 145 139 153 157 158 160 162 163 169 174 181 182 176 187 195 200 200 202 197 196 196 198 202 210 217 221 233
333 332 326 326 319 325 329 1 6 8 355 12 12 15 28 36 56 66 90 152 166 150 150 155 155 155 154 162 168 172 176 180 182 188 197 196 196 197 190 190 194 200 205 214 224 234 249
333 331 324 323 322 318 315 346 3 0 355 356 4 1 20 36 37 46 109 144 164 170 148 148 154 157 162 171 171 175 172 183 185 191 193 194 194 195 192 191 195 203 214 225 238 247 254
334 330 320 320 313 316 306 324 342 352 342 328 348 357 359 20 41 45 91 134 139 143 150 163 172 176 171 169 177 177 174 179 194 192 193 194 194 195 195 199 204 218 233 242 248 254 262
332 327 319 318 305 305 296 303 322 317 343 316 298 324 323 327 15 47 86 118 148 155 155 176 175 179 193 195 191 182 187 189 185 190 197 196 199 198 198 208 221 234 242 247 252 258 256
327 322 316 315 309 296 291 287 300 303 302 309 304 284 273 268 293 330 89 157 167 172 182 174 196 203 198 208 196 182 189 192 190 191 197 198 199 201 206 222 234 244 252 256 251 249 245
325 317 310 305 306 286 291 280 286 289 288 289 287 277 259 256 252 256 238 199 182 208 198 197 177 181 192 205 188 191 188 193 190 195 195 201 208 217 224 233 242 252 251 244 245 243 228
321 314 304 301 303 282 283 276 285 284 282 284 277 270 261 249 237 235 226 220 206 190 192 166 165 184 187 196 196 194 192 193 198 200 204 213 222 229 236 244 251 249 235 234 235 226 232
320 309 301 304 299 280 281 268 281 288 283 281 276 267 258 246 232 225 222 220 222 201 198 200 182 179 175 196 201 209 209 208 210 214 220 226 232 239 247 253 252 236 232 226 224 227 237
319 307 298 303 293 277 281 277 279 289 285 286 283 273 260 236 232 221 216 215 222 205 202 206 214 216 216 208 209 214 209 217 220 223 227 231 238 244 252 250 239 232 227 223 222 237 231
315 312 305 299 291 277 292 280 286 290 293 293 290 287 281 244 222 212 208 209 209 213 208 201 214 229 231 233 231 227 228 228 228 226 229 234 241 248 253 242 226 230 224 219 220 229 238
314 313 306 302 289 283 287 281 292 295 297 298 296 294 258 222 214 201 204 203 206 213 217 216 227 239 245 242 240 239 237 234 231 236 238 243 246 249 246 232 225 227 216 216 211 217 243